| time (UTC) | temp F | wind direction | speed MPH | gust MPH | rain 1hr in | rain 24hr in | rain mn in | humidity % | barometer mb |
| 20260504050354 | 59 | 360 | 8.0 | 15.0 | 0.00 | 0.01 | 0.01 | 63 | 1002.2 |
| 20260504045823 | 59 | 360 | 10.0 | 15.0 | 0.00 | 0.01 | 0.01 | 63 | 1002.1 |
| 20260504045355 | 59 | 360 | 8.0 | 15.0 | 0.00 | 0.01 | 0.01 | 63 | 1002.2 |
| 20260504044824 | 59 | 360 | 10.0 | 15.0 | 0.00 | 0.01 | 0.01 | 62 | 1002.2 |
| 20260504044402 | 59 | 360 | 8.0 | 13.0 | 0.00 | 0.01 | 0.01 | 63 | 1002.2 |
| 20260504043828 | 59 | 360 | 6.0 | 12.0 | 0.00 | 0.01 | 0.01 | 63 | 1002.2 |
| 20260504043336 | 59 | 360 | 8.0 | 14.0 | 0.00 | 0.01 | 0.01 | 62 | 1002.1 |
| 20260504042826 | 59 | 360 | 9.0 | 14.0 | 0.00 | 0.01 | 0.01 | 63 | 1002.2 |
| 20260504042335 | 59 | 360 | 8.0 | 13.0 | 0.00 | 0.01 | 0.01 | 62 | 1002.3 |
| 20260504041823 | 59 | 360 | 7.0 | 12.0 | 0.00 | 0.01 | 0.01 | 62 | 1002.1 |
| 20260504041335 | 59 | 360 | 7.0 | 12.0 | 0.00 | 0.01 | 0.01 | 62 | 1002.1 |
| 20260504040824 | 59 | 360 | 6.0 | 12.0 | 0.00 | 0.01 | 0.01 | 62 | 1002.1 |
| 20260504040334 | 59 | 360 | 6.0 | 9.0 | 0.00 | 0.01 | 0.01 | 62 | 1002.2 |
| 20260504035824 | 60 | 360 | 7.0 | 9.0 | 0.00 | 0.01 | 0.01 | 62 | 1002.2 |
| 20260504035335 | 60 | 360 | 5.0 | 9.0 | 0.00 | 0.01 | 0.01 | 62 | 1002.2 |
| 20260504034824 | 60 | 184 | 5.0 | 8.0 | 0.00 | 0.01 | 0.01 | 61 | 1002.3 |
| 20260504034335 | 60 | 360 | 6.0 | 9.0 | 0.00 | 0.01 | 0.01 | 60 | 1002.3 |
| 20260504033823 | 60 | 360 | 6.0 | 9.0 | 0.00 | 0.01 | 0.01 | 61 | 1002.3 |
| 20260504033332 | 60 | 360 | 6.0 | 10.0 | 0.00 | 0.01 | 0.01 | 60 | 1002.3 |
| 20260504032842 | 60 | 360 | 5.0 | 10.0 | 0.00 | 0.01 | 0.01 | 60 | 1002.5 |
| 20260504032330 | 61 | 360 | 6.0 | 9.0 | 0.00 | 0.01 | 0.01 | 60 | 1002.4 |
| 20260504031820 | 61 | 360 | 7.0 | 9.0 | 0.00 | 0.01 | 0.01 | 60 | 1002.4 |
| 20260504031328 | 61 | 360 | 6.0 | 9.0 | 0.00 | 0.01 | 0.01 | 60 | 1002.5 |
| 20260504030837 | 61 | 360 | 6.0 | 9.0 | 0.00 | 0.01 | 0.01 | 59 | 1002.4 |
| 20260504030324 | 61 | 360 | 5.0 | 9.0 | 0.00 | 0.01 | 0.01 | 59 | 1002.5 |
| 20260504025835 | 61 | 360 | 6.0 | 9.0 | 0.00 | 0.01 | 0.01 | 59 | 1002.5 |
| 20260504025323 | 61 | 360 | 5.0 | 9.0 | 0.00 | 0.01 | 0.01 | 58 | 1002.6 |
| 20260504024833 | 61 | 360 | 6.0 | 11.0 | 0.00 | 0.01 | 0.01 | 58 | 1002.6 |
| 20260504024344 | 61 | 360 | 6.0 | 11.0 | 0.00 | 0.01 | 0.01 | 57 | 1002.5 |
| 20260504023850 | 61 | 360 | 6.0 | 9.0 | 0.00 | 0.01 | 0.01 | 57 | 1002.5 |
| 20260504023339 | 61 | 360 | 6.0 | 8.0 | 0.00 | 0.01 | 0.01 | 57 | 1002.5 |
| 20260504022828 | 61 | 360 | 5.0 | 8.0 | 0.00 | 0.01 | 0.01 | 57 | 1002.6 |
| 20260504022335 | 61 | 360 | 5.0 | 7.0 | 0.00 | 0.01 | 0.01 | 57 | 1002.5 |
| 20260504021822 | 61 | 189 | 4.0 | 7.0 | 0.00 | 0.01 | 0.01 | 57 | 1002.4 |
| 20260504021334 | 61 | 360 | 5.0 | 7.0 | 0.00 | 0.01 | 0.01 | 57 | 1002.4 |
| 20260504020844 | 61 | 360 | 4.0 | 6.0 | 0.00 | 0.01 | 0.01 | 57 | 1002.4 |
| 20260504020352 | 62 | 192 | 4.0 | 6.0 | 0.00 | 0.01 | 0.01 | 56 | 1002.3 |
| 20260504015348 | 62 | 360 | 5.0 | 7.0 | 0.00 | 0.01 | 0.01 | 55 | 1002.3 |
| 20260504014836 | 62 | 360 | 5.0 | 7.0 | 0.00 | 0.01 | 0.01 | 55 | 1002.3 |
| 20260504014327 | 62 | 360 | 4.0 | 7.0 | 0.00 | 0.01 | 0.01 | 55 | 1002.2 |
| 20260504013834 | 62 | 360 | 4.0 | 7.0 | 0.00 | 0.01 | 0.01 | 54 | 1002.2 |
| 20260504013339 | 63 | 360 | 5.0 | 6.0 | 0.00 | 0.01 | 0.01 | 54 | 1002.1 |
| 20260504012849 | 63 | 360 | 4.0 | 6.0 | 0.00 | 0.01 | 0.01 | 53 | 1002.1 |
| 20260504012336 | 63 | 360 | 4.0 | 6.0 | 0.00 | 0.01 | 0.01 | 53 | 1002.1 |
| 20260504011826 | 63 | 360 | 4.0 | 6.0 | 0.00 | 0.01 | 0.01 | 53 | 1002.1 |
| 20260504011337 | 63 | 360 | 3.0 | 7.0 | 0.00 | 0.01 | 0.01 | 53 | 1002.1 |
| 20260504010826 | 64 | 360 | 4.0 | 7.0 | 0.00 | 0.01 | 0.01 | 52 | 1001.9 |
| 20260504010336 | 64 | 360 | 5.0 | 7.0 | 0.00 | 0.01 | 0.01 | 52 | 1001.9 |
| 20260504005846 | 64 | 360 | 5.0 | 8.0 | 0.00 | 0.01 | 0.01 | 51 | 1001.8 |
| 20260504005404 | 65 | 360 | 5.0 | 10.0 | 0.00 | 0.01 | 0.01 | 51 | 1001.8 |
| 20260504004852 | 65 | 360 | 5.0 | 10.0 | 0.00 | 0.01 | 0.01 | 50 | 1001.8 |
| 20260504004339 | 65 | 360 | 6.0 | 9.0 | 0.00 | 0.01 | 0.01 | 50 | 1001.7 |
| 20260504003827 | 65 | 360 | 7.0 | 9.0 | 0.00 | 0.01 | 0.01 | 49 | 1001.8 |
| 20260504003331 | 66 | 360 | 6.0 | 11.0 | 0.00 | 0.01 | 0.01 | 49 | 1001.8 |
| 20260504002840 | 66 | 360 | 7.0 | 11.0 | 0.00 | 0.01 | 0.01 | 48 | 1001.9 |
| 20260504002328 | 66 | 360 | 5.0 | 9.0 | 0.00 | 0.01 | 0.01 | 48 | 1001.9 |
| 20260504001836 | 66 | 360 | 7.0 | 14.0 | 0.00 | 0.01 | 0.01 | 47 | 1001.9 |
| 20260504001327 | 67 | 360 | 7.0 | 14.0 | 0.00 | 0.01 | 0.01 | 47 | 1001.9 |
| 20260504000837 | 67 | 360 | 8.0 | 11.0 | 0.00 | 0.01 | 0.01 | 47 | 1001.9 |
| 20260504000346 | 67 | 360 | 7.0 | 10.0 | 0.00 | 0.01 | 0.01 | 47 | 1001.9 |
| 20260503235857 | 67 | 360 | 7.0 | 13.0 | 0.00 | 0.01 | 0.01 | 47 | 1002.0 |
| 20260503235324 | 67 | 360 | 9.0 | 13.0 | 0.00 | 0.01 | 0.01 | 46 | 1002.1 |
| 20260503234833 | 67 | 360 | 7.0 | 13.0 | 0.00 | 0.01 | 0.01 | 46 | 1002.0 |
| 20260503234324 | 67 | 360 | 9.0 | 15.0 | 0.00 | 0.01 | 0.01 | 46 | 1002.0 |
| 20260503233830 | 67 | 360 | 9.0 | 17.0 | 0.00 | 0.01 | 0.01 | 44 | 1002.0 |
| 20260503233340 | 67 | 360 | 9.0 | 19.0 | 0.00 | 0.01 | 0.01 | 44 | 1002.0 |
| 20260503232830 | 68 | 360 | 12.0 | 19.0 | 0.00 | 0.01 | 0.01 | 44 | 1002.1 |
| 20260503232340 | 68 | 360 | 10.0 | 19.0 | 0.00 | 0.01 | 0.01 | 44 | 1002.0 |
| 20260503231828 | 68 | 360 | 10.0 | 25.0 | 0.00 | 0.01 | 0.01 | 43 | 1002.1 |
| 20260503231339 | 68 | 360 | 19.0 | 28.0 | 0.00 | 0.01 | 0.01 | 43 | 1002.2 |
| 20260503230846 | 68 | 360 | 16.0 | 28.0 | 0.00 | 0.01 | 0.01 | 42 | 1002.2 |
| 20260503230354 | 68 | 360 | 18.0 | 27.0 | 0.00 | 0.01 | 0.01 | 42 | 1002.2 |
| 20260503225824 | 68 | 360 | 10.0 | 19.0 | 0.00 | 0.01 | 0.01 | 43 | 1002.2 |
| 20260503225327 | 68 | 360 | 10.0 | 18.0 | 0.00 | 0.01 | 0.01 | 45 | 1002.3 |
| 20260503224903 | 68 | 360 | 10.0 | 19.0 | 0.00 | 0.01 | 0.01 | 44 | 1002.2 |
| 20260503224352 | 68 | 360 | 12.0 | 22.0 | 0.00 | 0.01 | 0.01 | 43 | 1002.3 |
| 20260503223838 | 68 | 360 | 14.0 | 22.0 | 0.00 | 0.01 | 0.01 | 43 | 1002.2 |
| 20260503223327 | 68 | 360 | 14.0 | 20.0 | 0.00 | 0.01 | 0.01 | 43 | 1002.2 |
| 20260503222836 | 68 | 360 | 13.0 | 20.0 | 0.00 | 0.01 | 0.01 | 44 | 1002.2 |
| 20260503222344 | 67 | 360 | 14.0 | 25.0 | 0.00 | 0.01 | 0.01 | 43 | 1002.2 |
| 20260503221833 | 67 | 360 | 19.0 | 25.0 | 0.00 | 0.01 | 0.01 | 43 | 1002.2 |
| 20260503221342 | 67 | 360 | 14.0 | 25.0 | 0.00 | 0.01 | 0.01 | 44 | 1002.3 |
| 20260503220830 | 67 | 360 | 17.0 | 25.0 | 0.00 | 0.01 | 0.01 | 44 | 1002.4 |
| 20260503220338 | 67 | 360 | 15.0 | 27.0 | 0.00 | 0.01 | 0.01 | 44 | 1002.4 |
| 20260503215827 | 66 | 360 | 20.0 | 28.0 | 0.00 | 0.01 | 0.01 | 44 | 1002.5 |
| 20260503215336 | 67 | 360 | 18.0 | 28.0 | 0.00 | 0.01 | 0.01 | 43 | 1002.8 |
| 20260503214827 | 67 | 360 | 18.0 | 24.0 | 0.00 | 0.01 | 0.01 | 43 | 1002.6 |
| 20260503214338 | 67 | 360 | 15.0 | 23.0 | 0.00 | 0.01 | 0.01 | 43 | 1002.6 |
| 20260503213825 | 67 | 360 | 12.0 | 26.0 | 0.00 | 0.01 | 0.01 | 44 | 1002.8 |
| 20260503213330 | 67 | 360 | 12.0 | 26.0 | 0.00 | 0.01 | 0.01 | 44 | 1002.9 |
| 20260503212838 | 66 | 360 | 15.0 | 26.0 | 0.00 | 0.01 | 0.01 | 44 | 1002.9 |
| 20260503212326 | 66 | 360 | 13.0 | 33.0 | 0.00 | 0.01 | 0.01 | 44 | 1002.9 |
| 20260503211836 | 66 | 360 | 19.0 | 33.0 | 0.00 | 0.01 | 0.01 | 44 | 1003.0 |
| 20260503211328 | 66 | 360 | 22.0 | 29.0 | 0.00 | 0.01 | 0.01 | 43 | 1003.1 |
| 20260503210901 | 66 | 360 | 16.0 | 36.0 | 0.00 | 0.01 | 0.01 | 45 | 1003.1 |
| 20260503210330 | 65 | 360 | 24.0 | 36.0 | 0.00 | 0.01 | 0.01 | 44 | 1003.2 |
| 20260503205839 | 64 | 360 | 18.0 | 37.0 | 0.00 | 0.01 | 0.01 | 45 | 1003.4 |
| 20260503205327 | 65 | 360 | 25.0 | 37.0 | 0.00 | 0.01 | 0.01 | 43 | 1003.4 |
| 20260503204835 | 65 | 360 | 20.0 | 30.0 | 0.00 | 0.01 | 0.01 | 44 | 1003.4 |
| 20260503204324 | 65 | 360 | 20.0 | 36.0 | 0.00 | 0.01 | 0.01 | 44 | 1003.7 |
| 20260503203859 | 65 | 360 | 24.0 | 36.0 | 0.00 | 0.01 | 0.01 | 44 | 1003.8 |
| 20260503203324 | 65 | 360 | 17.0 | 29.0 | 0.00 | 0.01 | 0.01 | 45 | 1003.8 |
| 20260503202834 | 65 | 360 | 15.0 | 25.0 | 0.00 | 0.01 | 0.01 | 49 | 1003.8 |
| 20260503202322 | 64 | 360 | 15.0 | 26.0 | 0.00 | 0.01 | 0.01 | 49 | 1004.0 |
| 20260503201831 | 63 | 360 | 20.0 | 27.0 | 0.00 | 0.01 | 0.01 | 49 | 1004.1 |
| 20260503201341 | 63 | 360 | 19.0 | 30.0 | 0.00 | 0.01 | 0.01 | 51 | 1004.3 |
| 20260503200848 | 62 | 360 | 17.0 | 30.0 | 0.00 | 0.01 | 0.01 | 51 | 1004.6 |
| 20260503200333 | 62 | 360 | 20.0 | 30.0 | 0.00 | 0.01 | 0.01 | 53 | 1004.7 |
| 20260503195822 | 62 | 360 | 15.0 | 28.0 | 0.00 | 0.01 | 0.01 | 52 | 1005.1 |
| 20260503195332 | 62 | 360 | 16.0 | 31.0 | 0.00 | 0.01 | 0.01 | 52 | 1005.2 |
| 20260503194839 | 63 | 360 | 20.0 | 31.0 | 0.00 | 0.01 | 0.01 | 49 | 1005.2 |
| 20260503194328 | 63 | 360 | 16.0 | 28.0 | 0.00 | 0.01 | 0.01 | 50 | 1005.3 |
| 20260503193836 | 62 | 360 | 14.0 | 28.0 | 0.00 | 0.01 | 0.01 | 50 | 1005.4 |
| 20260503193344 | 62 | 360 | 14.0 | 26.0 | 0.00 | 0.01 | 0.01 | 51 | 1005.3 |
| 20260503192834 | 62 | 360 | 17.0 | 28.0 | 0.00 | 0.01 | 0.01 | 49 | 1005.4 |
| 20260503192322 | 62 | 360 | 18.0 | 28.0 | 0.00 | 0.01 | 0.01 | 50 | 1005.3 |
| 20260503191830 | 62 | 360 | 14.0 | 29.0 | 0.00 | 0.01 | 0.01 | 49 | 1005.3 |
| 20260503191339 | 61 | 360 | 18.0 | 29.0 | 0.00 | 0.01 | 0.01 | 48 | 1005.2 |
| 20260503190825 | 61 | 360 | 15.0 | 27.0 | 0.00 | 0.01 | 0.01 | 49 | 1005.2 |
| 20260503190335 | 61 | 360 | 18.0 | 27.0 | 0.00 | 0.01 | 0.01 | 48 | 1005.3 |
| 20260503185845 | 61 | 360 | 20.0 | 27.0 | 0.00 | 0.01 | 0.01 | 48 | 1005.4 |
| 20260503185351 | 60 | 360 | 16.0 | 30.0 | 0.00 | 0.01 | 0.01 | 49 | 1005.2 |
| 20260503184838 | 60 | 360 | 15.0 | 30.0 | 0.00 | 0.01 | 0.01 | 49 | 1005.5 |
| 20260503184327 | 60 | 360 | 16.0 | 27.0 | 0.00 | 0.01 | 0.01 | 50 | 1005.5 |
| 20260503183837 | 60 | 360 | 19.0 | 27.0 | 0.00 | 0.01 | 0.01 | 50 | 1005.4 |
| 20260503183323 | 60 | 360 | 14.0 | 25.0 | 0.00 | 0.01 | 0.01 | 52 | 1005.5 |
| 20260503182831 | 59 | 360 | 14.0 | 24.0 | 0.00 | 0.01 | 0.01 | 53 | 1005.8 |
| 20260503182321 | 59 | 360 | 16.0 | 28.0 | 0.00 | 0.01 | 0.01 | 53 | 1005.8 |
| 20260503181830 | 59 | 360 | 14.0 | 29.0 | 0.00 | 0.01 | 0.01 | 53 | 1005.9 |
| 20260503181341 | 59 | 360 | 16.0 | 29.0 | 0.00 | 0.01 | 0.01 | 52 | 1005.9 |
| 20260503180828 | 59 | 360 | 20.0 | 29.0 | 0.01 | 0.01 | 0.01 | 52 | 1006.0 |
| 20260503180336 | 58 | 360 | 13.0 | 29.0 | 0.01 | 0.01 | 0.01 | 54 | 1006.1 |
| 20260503175825 | 58 | 360 | 18.0 | 28.0 | 0.01 | 0.01 | 0.01 | 53 | 1006.1 |
| 20260503175335 | 58 | 360 | 17.0 | 30.0 | 0.01 | 0.01 | 0.01 | 56 | 1006.3 |
| 20260503174846 | 58 | 360 | 20.0 | 30.0 | 0.01 | 0.01 | 0.01 | 56 | 1006.6 |
| 20260503174356 | 58 | 360 | 18.0 | 29.0 | 0.01 | 0.01 | 0.01 | 55 | 1006.7 |
| 20260503173824 | 58 | 360 | 17.0 | 26.0 | 0.01 | 0.01 | 0.01 | 57 | 1006.7 |
| 20260503173358 | 57 | 360 | 21.0 | 29.0 | 0.01 | 0.01 | 0.01 | 59 | 1006.9 |
| 20260503172847 | 57 | 360 | 10.0 | 29.0 | 0.01 | 0.01 | 0.01 | 62 | 1007.2 |
| 20260503172356 | 57 | 360 | 15.0 | 24.0 | 0.01 | 0.01 | 0.01 | 62 | 1007.3 |
| 20260503171824 | 56 | 360 | 17.0 | 31.0 | 0.01 | 0.01 | 0.01 | 64 | 1007.5 |
| 20260503171358 | 55 | 360 | 17.0 | 31.0 | 0.01 | 0.01 | 0.01 | 65 | 1007.7 |
| 20260503170824 | 55 | 360 | 16.0 | 26.0 | 0.00 | 0.00 | 0.00 | 64 | 1007.8 |
| 20260503170334 | 55 | 360 | 14.0 | 24.0 | 0.00 | 0.00 | 0.00 | 65 | 1008.0 |
| 20260503150826 | 55 | 360 | 22.0 | 28.0 | 0.00 | 0.00 | 0.00 | 58 | 1009.2 |
| 20260503150336 | 55 | 360 | 17.0 | 27.0 | 0.00 | 0.00 | 0.00 | 59 | 1009.3 |
| 20260503131336 | 52 | 360 | 15.0 | 27.0 | 0.00 | 0.00 | 0.00 | 57 | 1010.0 |
| 20260503130843 | 52 | 360 | 18.0 | 26.0 | 0.00 | 0.00 | 0.00 | 57 | 1010.2 |
| 20260503130351 | 52 | 360 | 14.0 | 26.0 | 0.00 | 0.00 | 0.00 | 57 | 1010.4 |
| 20260503110326 | 49 | 360 | 15.0 | 21.0 | 0.00 | 0.00 | 0.00 | 55 | 1009.8 |
| 20260503090329 | 48 | 360 | 10.0 | 14.0 | 0.00 | 0.00 | 0.00 | 54 | 1010.7 |
| 20260503081340 | 47 | 360 | 9.0 | 14.0 | 0.00 | 0.00 | 0.00 | 54 | 1010.9 |
| 20260503080828 | 47 | 360 | 9.0 | 15.0 | 0.00 | 0.00 | 0.00 | 54 | 1010.9 |
| 20260503080338 | 47 | 360 | 10.0 | 15.0 | 0.00 | 0.00 | 0.00 | 54 | 1010.9 |
| 20260503072839 | 47 | 360 | 9.0 | 12.0 | 0.00 | 0.00 | 0.00 | 56 | 1010.7 |
| 20260503072349 | 47 | 360 | 9.0 | 13.0 | 0.00 | 0.00 | 0.00 | 55 | 1010.8 |
| 20260503071838 | 47 | 360 | 8.0 | 13.0 | 0.00 | 0.00 | 0.00 | 56 | 1010.9 |
| 20260503071329 | 47 | 360 | 8.0 | 14.0 | 0.00 | 0.00 | 0.00 | 56 | 1010.9 |
| 20260503070836 | 46 | 360 | 10.0 | 14.0 | 0.00 | 0.00 | 0.00 | 56 | 1011.0 |
| 20260503070346 | 46 | 360 | 8.0 | 11.0 | 0.00 | 0.00 | 0.00 | 57 | 1011.0 |